When you browse on this site, cookies collect data to enhance your experience and personalize the content and advertising you see.
Visit our Privacy Policy to learn more. By continuing to use the site, you agree to this use of cookies and data.
  • en Suisse
  • Liste des pays
  • À 7 jours
  • Température de l'eau
  • Carte satellitaire
  • Carte météo
  • Widgets météo
  • user-avatar
    Se connecter

    Météo par heure à Plateaux

    Ce jour, 26 Avril, Vendredi

    Heure Température Précipitation Vent Pression Humidité
    00:00 +27°C° 0.2 mm 3 m/s 720 mmHg 82%
    01:00 +27°C° 0.2 mm 3 m/s 720 mmHg 82%
    02:00 +27°C° 0.2 mm 3 m/s 720 mmHg 84%
    03:00 +26°C° 0.2 mm 2 m/s 720 mmHg 85%
    04:00 +26°C° 0.2 mm 2 m/s 720 mmHg 86%
    05:00 +26°C° 0.3 mm 2 m/s 720 mmHg 87%
    06:00 +26°C° 0.3 mm 2 m/s 720 mmHg 87%
    07:00 +27°C° 0.3 mm 2 m/s 721 mmHg 88%
    08:00 +28°C° 0.8 mm 2 m/s 721 mmHg 83%
    09:00 +29°C° 0.8 mm 1 m/s 722 mmHg 79%
    10:00 +30°C° 0.8 mm 1 m/s 722 mmHg 74%
    11:00 +30°C° 0.8 mm 1 m/s 722 mmHg 73%
    12:00 +30°C° 0.8 mm 1 m/s 721 mmHg 72%
    13:00 +30°C° 0.8 mm 2 m/s 721 mmHg 71%
    14:00 +30°C° 0 mm 1 m/s 721 mmHg 70%
    15:00 +30°C° 0 mm 1 m/s 720 mmHg 69%
    16:00 +30°C° 0 mm 1 m/s 720 mmHg 68%
    17:00 +29°C° 0 mm 1 m/s 720 mmHg 71%
    18:00 +28°C° 0 mm 1 m/s 720 mmHg 74%
    19:00 +27°C° 0 mm 1 m/s 719 mmHg 77%
    20:00 +27°C° 0 mm 1 m/s 719 mmHg 79%
    21:00 +25°C° 0 mm 0 m/s 719 mmHg 81%
    22:00 +24°C° 0 mm 0 m/s 719 mmHg 83%
    23:00 +24°C° 0 mm 0 m/s 719 mmHg 85%

    Demain, 27 Avril, Samedi

    Heure Température Précipitation Vent Pression Humidité
    00:00 +23°C° 0 mm 0 m/s 719 mmHg 86%
    01:00 +23°C° 0 mm 0 m/s 719 mmHg 88%
    02:00 +23°C° 0 mm 0 m/s 719 mmHg 88%
    03:00 +23°C° 0 mm 0 m/s 719 mmHg 89%
    04:00 +22°C° 0 mm 0 m/s 719 mmHg 89%
    05:00 +25°C° 0 mm 1 m/s 719 mmHg 88%
    06:00 +25°C° 0 mm 1 m/s 719 mmHg 86%
    07:00 +26°C° 0 mm 1 m/s 720 mmHg 84%
    08:00 +29°C° 0 mm 1 m/s 720 mmHg 74%
    09:00 +31°C° 0 mm 1 m/s 721 mmHg 65%
    10:00 +34°C° 0 mm 1 m/s 721 mmHg 55%
    11:00 +35°C° 0 mm 1 m/s 721 mmHg 50%
    12:00 +37°C° 0 mm 2 m/s 720 mmHg 44%
    13:00 +38°C° 0 mm 2 m/s 719 mmHg 39%
    14:00 +38°C° 0 mm 2 m/s 718 mmHg 39%
    15:00 +37°C° 0 mm 1 m/s 718 mmHg 38%
    16:00 +37°C° 0 mm 1 m/s 717 mmHg 37%
    17:00 +35°C° 0 mm 1 m/s 717 mmHg 42%
    18:00 +33°C° 0 mm 1 m/s 718 mmHg 47%
    19:00 +31°C° 0 mm 1 m/s 718 mmHg 51%
    20:00 +30°C° 0 mm 1 m/s 719 mmHg 51%
    21:00 +28°C° 0 mm 0 m/s 719 mmHg 52%
    22:00 +28°C° 0 mm 0 m/s 720 mmHg 52%
    23:00 +29°C° 0 mm 1 m/s 719 mmHg 56%

    Après-demain, 28 Avril, Dimanche

    Heure Température Précipitation Vent Pression Humidité
    00:00 +28°C° 0 mm 1 m/s 719 mmHg 60%
    01:00 +28°C° 0 mm 2 m/s 719 mmHg 64%
    02:00 +28°C° 0 mm 2 m/s 719 mmHg 70%
    03:00 +27°C° 0 mm 2 m/s 718 mmHg 75%
    04:00 +27°C° 0 mm 2 m/s 718 mmHg 80%
    05:00 +27°C° 0 mm 2 m/s 719 mmHg 80%
    06:00 +27°C° 0 mm 2 m/s 719 mmHg 81%
    07:00 +28°C° 0 mm 2 m/s 720 mmHg 81%
    08:00 +30°C° 0.8 mm 2 m/s 720 mmHg 74%
    09:00 +31°C° 0.8 mm 3 m/s 721 mmHg 67%
    10:00 +34°C° 0.8 mm 3 m/s 721 mmHg 60%
    11:00 +35°C° 0 mm 2 m/s 720 mmHg 54%
    12:00 +36°C° 0 mm 1 m/s 720 mmHg 49%
    13:00 +37°C° 0 mm 1 m/s 719 mmHg 44%
    14:00 +36°C° 0 mm 1 m/s 719 mmHg 47%
    15:00 +35°C° 0 mm 1 m/s 718 mmHg 50%
    16:00 +34°C° 0 mm 1 m/s 718 mmHg 54%
    17:00 +33°C° 0 mm 1 m/s 718 mmHg 56%
    18:00 +32°C° 0 mm 1 m/s 719 mmHg 59%
    19:00 +32°C° 0 mm 1 m/s 719 mmHg 61%
    20:00 +30°C° 0.3 mm 1 m/s 720 mmHg 67%
    21:00 +29°C° 0.3 mm 2 m/s 720 mmHg 72%
    22:00 +28°C° 0.3 mm 2 m/s 720 mmHg 78%
    23:00 +28°C° 0.4 mm 2 m/s 720 mmHg 81%

    29 Avril, Lundi

    Heure Température Précipitation Vent Pression Humidité
    00:00 +27°C° 0.4 mm 2 m/s 720 mmHg 84%
    01:00 +27°C° 0.4 mm 3 m/s 720 mmHg 87%
    02:00 +27°C° 0.2 mm 3 m/s 719 mmHg 87%
    03:00 +26°C° 0.2 mm 3 m/s 719 mmHg 88%
    04:00 +26°C° 0.2 mm 3 m/s 719 mmHg 88%
    05:00 +26°C° 0.3 mm 3 m/s 720 mmHg 88%
    06:00 +26°C° 0.3 mm 3 m/s 720 mmHg 88%
    07:00 +27°C° 0.3 mm 3 m/s 721 mmHg 87%
    08:00 +28°C° 1.5 mm 3 m/s 721 mmHg 81%
    09:00 +30°C° 1.5 mm 3 m/s 722 mmHg 75%
    10:00 +31°C° 1.5 mm 3 m/s 722 mmHg 70%
    11:00 +33°C° 0.7 mm 3 m/s 721 mmHg 66%
    12:00 +32°C° 0.7 mm 2 m/s 721 mmHg 63%
    13:00 +34°C° 0.7 mm 2 m/s 720 mmHg 59%
    14:00 +32°C° 1.7 mm 1 m/s 720 mmHg 63%
    15:00 +31°C° 1.7 mm 1 m/s 719 mmHg 68%
    16:00 +29°C° 1.7 mm 0 m/s 719 mmHg 72%
    17:00 +30°C° 0.4 mm 1 m/s 720 mmHg 77%
    18:00 +28°C° 0.4 mm 1 m/s 720 mmHg 81%
    19:00 +27°C° 0.4 mm 1 m/s 720 mmHg 86%
    20:00 +27°C° 0 mm 1 m/s 721 mmHg 87%
    21:00 +27°C° 0 mm 1 m/s 721 mmHg 88%
    22:00 +27°C° 0 mm 2 m/s 721 mmHg 89%
    23:00 +26°C° 0 mm 2 m/s 721 mmHg 89%

    30 Avril, Mardi

    Heure Température Précipitation Vent Pression Humidité
    00:00 +26°C° 0 mm 2 m/s 720 mmHg 89%
    01:00 +26°C° 0 mm 2 m/s 720 mmHg 89%
    02:00 +26°C° 0.1 mm 2 m/s 720 mmHg 89%
    03:00 +26°C° 0.1 mm 1 m/s 720 mmHg 89%
    04:00 +26°C° 0.1 mm 1 m/s 720 mmHg 89%
    05:00 +26°C° 0.1 mm 1 m/s 721 mmHg 88%
    06:00 +26°C° 0.1 mm 2 m/s 721 mmHg 86%
    07:00 +26°C° 0.1 mm 2 m/s 722 mmHg 85%
    08:00 +28°C° 1.2 mm 1 m/s 722 mmHg 81%
    09:00 +29°C° 1.2 mm 1 m/s 722 mmHg 76%
    10:00 +30°C° 1.2 mm 1 m/s 723 mmHg 72%
    11:00 +30°C° 2.6 mm 1 m/s 722 mmHg 71%
    12:00 +28°C° 2.6 mm 0 m/s 721 mmHg 70%
    13:00 +29°C° 2.6 mm 0 m/s 721 mmHg 69%
    14:00 +30°C° 0.1 mm 1 m/s 720 mmHg 71%
    15:00 +30°C° 0.1 mm 1 m/s 720 mmHg 73%
    16:00 +29°C° 0.1 mm 2 m/s 720 mmHg 75%
    17:00 +28°C° 0 mm 2 m/s 720 mmHg 78%
    18:00 +28°C° 0 mm 2 m/s 720 mmHg 81%
    19:00 +27°C° 0 mm 2 m/s 720 mmHg 85%
    20:00 +26°C° 0 mm 2 m/s 720 mmHg 85%
    21:00 +26°C° 0 mm 2 m/s 721 mmHg 86%
    22:00 +26°C° 0 mm 2 m/s 721 mmHg 86%
    23:00 +25°C° 0 mm 2 m/s 721 mmHg 87%

    1 Mai, Mercredi

    Heure Température Précipitation Vent Pression Humidité
    00:00 +25°C° 0 mm 2 m/s 721 mmHg 88%
    01:00 +25°C° 0 mm 2 m/s 720 mmHg 89%
    02:00 +25°C° 0 mm 2 m/s 720 mmHg 89%
    03:00 +25°C° 0 mm 2 m/s 720 mmHg 89%
    04:00 +25°C° 0 mm 2 m/s 720 mmHg 89%
    05:00 +25°C° 0 mm 2 m/s 720 mmHg 87%
    06:00 +25°C° 0 mm 2 m/s 720 mmHg 85%
    07:00 +26°C° 0 mm 1 m/s 721 mmHg 83%
    08:00 +27°C° 0 mm 2 m/s 721 mmHg 77%
    09:00 +29°C° 0 mm 2 m/s 721 mmHg 70%
    10:00 +31°C° 0 mm 2 m/s 721 mmHg 63%
    11:00 +32°C° 0 mm 2 m/s 721 mmHg 59%
    12:00 +33°C° 0 mm 1 m/s 720 mmHg 55%
    13:00 +33°C° 0 mm 1 m/s 720 mmHg 51%
    14:00 +33°C° 0 mm 1 m/s 719 mmHg 53%
    15:00 +33°C° 0 mm 1 m/s 719 mmHg 54%
    16:00 +33°C° 0 mm 1 m/s 719 mmHg 55%
    17:00 +32°C° 0 mm 1 m/s 719 mmHg 58%
    18:00 +30°C° 0 mm 1 m/s 719 mmHg 60%
    19:00 +29°C° 0 mm 1 m/s 719 mmHg 63%
    20:00 +29°C° 0 mm 1 m/s 719 mmHg 65%
    21:00 +28°C° 0 mm 1 m/s 719 mmHg 66%
    22:00 +28°C° 0 mm 2 m/s 719 mmHg 68%
    23:00 +28°C° 0 mm 1 m/s 719 mmHg 71%
    Voir plus